Brainerd, MN

7:11 AM CDT on April 25, 2017 (GMT -0500)
Brainerd-Crow Wing County Regional

Weather History for KBRD - April, 2013

Change the Weather History Date:

Monday, April 22, 2013

  Actual Average Record
Temperature  
Mean Temperature 32 °F -  
Max Temperature 36 °F 59 °F 94 °F (1980)
Min Temperature 27 °F 33 °F 22 °F (1967)
Degree Days  
Heating Degree Days 34    
Moisture  
Dew Point 23 °F    
Average Humidity 66    
Maximum Humidity 81    
Minimum Humidity 52    
Precipitation  
Precipitation 0.00 in - - ()
Sea Level Pressure  
Sea Level Pressure 30.24 in    
Wind  
Wind Speed 8 mph (North)    
Max Wind Speed 13 mph    
Max Gust Speed 21 mph    
Visibility 8 miles    
Events Snow    
Averages and records for this station are not official NWS values.
T = Trace of Precipitation, MM = Missing Value Source: NWS Daily Summary

Daily Weather History Graph

Daily Weather History Graph

Search for Another Location

Airport or City:

Trip Planner

Search our weather history database for the weather conditions in past years. The results will help you decide how hot, cold, wet, or windy it might be!

Date:

Astronomy

Apr. 22, 2013 Rise Set
Actual Time 6:16 AM CDT 8:14 PM CDT
Civil Twilight 5:44 AM CDT 8:46 PM CDT
Nautical Twilight 5:04 AM CDT 9:26 PM CDT
Astronomical Twilight 4:21 AM CDT 10:10 PM CDT
Moon 4:53 PM CDT (4/22) 4:23 AM CDT (4/22)
Length of Visible Light 15h 01m
Length of Day
13h 57m
Waxing Gibbous, 88% of the Moon is Illuminated
Apr 22
Waxing Gibbous
Apr 25
Full
May 2
Last Quarter
May 9
New
May 17
First Quarter

Hourly Weather History & Observations

Time (CDT) Temp. Windchill Dew Point Humidity Pressure Visibility Wind Dir Wind Speed Gust Speed Precip Events Conditions
12:53 AM 36.0 °F 29.0 °F 28.0 °F 73% 30.17 in 10.0 mi NNW 9.2 mph - N/A   Overcast
1:53 AM 35.1 °F 28.6 °F 27.0 °F 72% 30.18 in 10.0 mi WNW 8.1 mph - N/A   Overcast
2:53 AM 34.0 °F 28.0 °F 25.0 °F 70% 30.20 in 10.0 mi NW 6.9 mph - N/A   Overcast
3:53 AM 32.0 °F 27.5 °F 25.0 °F 75% 30.21 in 10.0 mi NW 4.6 mph - N/A   Scattered Clouds
4:53 AM 30.9 °F 27.5 °F 24.1 °F 76% 30.23 in 10.0 mi WNW 3.5 mph - N/A   Clear
5:53 AM 28.0 °F - 21.9 °F 78% 30.24 in 10.0 mi Calm Calm - N/A   Clear
6:53 AM 27.0 °F 23.0 °F 21.9 °F 81% 30.28 in 10.0 mi West 3.5 mph - N/A   Clear
7:53 AM 30.9 °F 23.5 °F 24.1 °F 76% 30.26 in 10.0 mi North 8.1 mph - N/A   Clear
8:53 AM 34.0 °F 29.8 °F 24.1 °F 67% 30.27 in 10.0 mi North 4.6 mph - N/A   Clear
9:53 AM 35.1 °F 27.9 °F 25.0 °F 67% 30.27 in 10.0 mi North 9.2 mph - N/A   Clear
10:53 AM 36.0 °F 27.5 °F 19.9 °F 52% 30.29 in 10.0 mi North 12.7 mph - N/A   Partly Cloudy
11:53 AM 36.0 °F 29.6 °F 19.9 °F 52% 30.32 in 10.0 mi North 8.1 mph - N/A   Overcast
12:53 PM 34.0 °F 25.0 °F 24.1 °F 67% 30.30 in 3.0 mi North 12.7 mph - 0.00 in Snow Light Snow
12:58 PM 33.8 °F 27.0 °F 24.8 °F 70% 30.24 in 1.8 mi NNE 8.1 mph - 0.00 in Snow Light Snow
1:03 PM 33.8 °F 27.0 °F 24.8 °F 70% 30.24 in 2.5 mi NNE 8.1 mph - 0.00 in Snow Light Snow
1:07 PM 33.8 °F 27.0 °F 24.8 °F 70% 30.23 in 5.0 mi NNE 8.1 mph - 0.00 in Snow Light Snow
1:41 PM 35.6 °F 30.7 °F 21.2 °F 56% 30.23 in 9.0 mi NNE 5.8 mph - 0.00 in   Overcast
1:53 PM 35.1 °F 27.9 °F 21.0 °F 57% 30.27 in 10.0 mi NNE 9.2 mph - 0.00 in   Overcast
2:06 PM 35.6 °F 28.6 °F 21.2 °F 56% 30.21 in 10.0 mi North 9.2 mph - N/A   Overcast
2:21 PM 33.8 °F 25.8 °F 21.2 °F 60% 30.22 in 2.5 mi NNE 10.4 mph - 0.00 in Snow Light Snow
2:30 PM 33.8 °F 27.0 °F 21.2 °F 60% 30.23 in 4.0 mi North 8.1 mph - 0.00 in Snow Light Snow
2:53 PM 35.1 °F 27.4 °F 21.0 °F 57% 30.27 in 6.0 mi NNE 10.4 mph - 0.00 in   Haze
3:23 PM 35.6 °F 32.8 °F 19.4 °F 52% 30.22 in 9.0 mi North 3.5 mph - 0.00 in   Overcast
3:53 PM 36.0 °F 28.5 °F 21.0 °F 55% 30.26 in 5.0 mi North 10.4 mph - 0.00 in Snow Light Snow
4:11 PM 35.6 °F 28.0 °F 21.2 °F 56% 30.21 in 3.0 mi North 10.4 mph 20.7 mph 0.00 in Snow Light Snow
4:45 PM 33.8 °F 25.3 °F 24.8 °F 70% 30.21 in 2.5 mi NNE 11.5 mph - 0.00 in Snow Light Snow
4:53 PM 34.0 °F 25.5 °F 24.1 °F 67% 30.26 in 3.0 mi NE 11.5 mph - 0.00 in Snow Light Snow
5:06 PM 33.8 °F 27.0 °F 24.8 °F 70% 30.21 in 2.5 mi NNE 8.1 mph - 0.00 in Snow Light Snow
5:29 PM 33.8 °F 26.4 °F 24.8 °F 70% 30.21 in 5.0 mi NNE 9.2 mph - 0.00 in Snow Light Snow
5:44 PM 33.8 °F 27.7 °F 26.6 °F 75% 30.21 in 8.0 mi ENE 6.9 mph - 0.00 in   Overcast
5:53 PM 34.0 °F 31.0 °F 26.1 °F 73% 30.26 in 9.0 mi East 3.5 mph - 0.00 in   Overcast
6:53 PM 35.1 °F 27.4 °F 21.9 °F 59% 30.26 in 10.0 mi North 10.4 mph 18.4 mph N/A   Overcast
7:53 PM 34.0 °F - 26.1 °F 73% 30.25 in 10.0 mi Calm Calm - N/A   Overcast
8:53 PM 32.0 °F - 26.1 °F 79% 30.26 in 10.0 mi Calm Calm - N/A   Overcast
9:53 PM 34.0 °F 27.2 °F 23.0 °F 64% 30.26 in 10.0 mi North 8.1 mph - N/A   Overcast
10:53 PM 34.0 °F 26.0 °F 21.9 °F 61% 30.25 in 10.0 mi North 10.4 mph - N/A   Overcast
11:53 PM 33.1 °F 24.9 °F 21.9 °F 64% 30.24 in 10.0 mi NNW 10.4 mph - N/A   Overcast